Lincoln, NE

2:02 AM CST on December 12, 2019 (GMT -0600)
Lincoln Municipal

Weather History for KLNK - September, 2019

Change the Weather History Date:

Saturday, September 21, 2019

  Actual Average Record
Temperature  
Mean Temperature 76 °F 64 °F  
Max Temperature 86 °F 77 °F 103 °F (2005)
Min Temperature 66 °F 51 °F 32 °F (1999)
Degree Days  
Heating Degree Days 0 4  
Month to date heating degree days 0 43  
Since 1 July heating degree days 0 49  
Cooling Degree Days 11 3  
Month to date cooling degree days 237 105  
Year to date cooling degree days 1289 1140  
Growing Degree Days 27 (Base 50)    
Moisture  
Dew Point 67 °F    
Average Humidity 73    
Maximum Humidity 90    
Minimum Humidity 55    
Precipitation  
Precipitation 1.40 in 0.10 in 1.43 in (2006)
Month to date precipitation 1.78 2.23  
Year to date precipitation 26.44 23.81  
Snow  
Snow 0.00 in 0.00 in 0.00 in (2006)
Month to date snowfall 0.0 0.0  
Since 1 July snowfall 0.0 0.0  
Since 1 September snowfall 0.0 0.0  
Snow Depth 0.00 in    
Sea Level Pressure  
Sea Level Pressure 29.82 in    
Wind  
Wind Speed 12 mph (South)    
Max Wind Speed 30 mph    
Max Gust Speed 39 mph    
Visibility 9 miles    
Events Rain , Thunderstorm    
T = Trace of Precipitation, MM = Missing Value Source: NWS Daily Summary

Daily Weather History Graph

Daily Weather History Graph

Search for Another Location

Airport or City:

Astronomy

Sep. 21, 2019 Rise Set
Actual Time 7:13 AM CDT 7:26 PM CDT
Civil Twilight 6:45 AM CDT 7:53 PM CDT
Nautical Twilight 6:13 AM CDT 8:25 PM CDT
Astronomical Twilight 5:41 AM CDT 8:58 PM CDT
Moon No Moon Rise 2:23 PM CDT (9/21)
Length of Visible Light 13h 07m
Length of Day
12h 12m
Waning Gibbous, 54% of the Moon is Illuminated
Sep 21
Waning Gibbous
Sep 21
Last Quarter
Sep 28
New
Oct 5
First Quarter
Oct 13
Full

Hourly Weather History & Observations

Time (CDT) Temp. Heat Index Dew Point Humidity Pressure Visibility Wind Dir Wind Speed Gust Speed Precip Events Conditions
12:46 AM 73.0 °F - 68.0 °F 84% 29.87 in 10.0 mi South 15.0 mph - N/A   Overcast
12:54 AM 73.0 °F - 68.0 °F 84% 29.83 in 10.0 mi South 17.3 mph - N/A   Overcast
1:54 AM 73.9 °F - 68.0 °F 82% 29.82 in 10.0 mi South 17.3 mph - N/A   Overcast
2:28 AM 73.9 °F - 68.0 °F 82% 29.86 in 10.0 mi South 17.3 mph 24.2 mph N/A   Overcast
2:54 AM 73.9 °F - 69.1 °F 85% 29.81 in 10.0 mi South 15.0 mph - N/A   Overcast
3:54 AM 73.9 °F - 69.1 °F 85% 29.80 in 10.0 mi SSE 13.8 mph - N/A   Overcast
4:37 AM 73.9 °F - 69.1 °F 85% 29.82 in 10.0 mi SSE 17.3 mph 25.3 mph N/A   Overcast
4:54 AM 73.9 °F - 69.1 °F 85% 29.78 in 10.0 mi South 17.3 mph - N/A   Overcast
5:31 AM 73.9 °F - 69.1 °F 85% 29.82 in 10.0 mi South 16.1 mph - N/A   Overcast
5:40 AM 73.9 °F - 69.1 °F 85% 29.82 in 10.0 mi South 12.7 mph - N/A   Overcast
5:54 AM 73.9 °F - 69.1 °F 85% 29.79 in 10.0 mi South 12.7 mph - N/A   Mostly Cloudy
6:54 AM 73.9 °F - 68.0 °F 82% 29.81 in 10.0 mi South 13.8 mph - N/A   Mostly Cloudy
7:54 AM 75.0 °F - 66.9 °F 76% 29.81 in 10.0 mi South 16.1 mph 24.2 mph N/A   Overcast
8:45 AM 75.0 °F - 66.9 °F 76% 29.84 in 10.0 mi South 15.0 mph 24.2 mph N/A   Overcast
8:54 AM 75.0 °F - 66.9 °F 76% 29.81 in 10.0 mi South 16.1 mph 25.3 mph N/A   Overcast
9:54 AM 75.9 °F - 66.9 °F 74% 29.81 in 10.0 mi South 20.7 mph 31.1 mph N/A   Overcast
10:54 AM 75.9 °F - 66.9 °F 74% 29.81 in 10.0 mi South 18.4 mph 26.5 mph N/A   Overcast
11:54 AM 78.1 °F - 66.9 °F 68% 29.80 in 10.0 mi SSW 13.8 mph 23.0 mph N/A   Overcast
12:54 PM 79.0 °F - 66.9 °F 66% 29.80 in 10.0 mi South 12.7 mph 18.4 mph N/A   Overcast
1:54 PM 81.0 °F 83.3 °F 66.9 °F 62% 29.80 in 10.0 mi SSW 10.4 mph - N/A   Overcast
2:54 PM 81.0 °F 83.8 °F 68.0 °F 65% 29.80 in 10.0 mi South 11.5 mph - N/A   Overcast
3:54 PM 84.0 °F 87.0 °F 68.0 °F 58% 29.78 in 10.0 mi South 8.1 mph - N/A   Mostly Cloudy
4:54 PM 86.0 °F 89.4 °F 68.0 °F 55% 29.78 in 10.0 mi SSW 12.7 mph - N/A   Mostly Cloudy
5:54 PM 86.0 °F 89.4 °F 68.0 °F 55% 29.77 in 10.0 mi SSE 10.4 mph - N/A   Mostly Cloudy
6:54 PM 82.9 °F 87.0 °F 70.0 °F 65% 29.76 in 10.0 mi SE 8.1 mph - N/A Thunderstorm Scattered Clouds
7:19 PM 82.0 °F 85.9 °F 70.0 °F 67% 29.80 in 10.0 mi ESE 10.4 mph - N/A Thunderstorm Thunderstorm
7:28 PM 79.0 °F - 72.0 °F 79% 29.82 in 1.2 mi SSW 28.8 mph 39.1 mph 0.00 in Rain , Thunderstorm Light Thunderstorms and Rain
7:35 PM 69.1 °F - 63.0 °F 81% 29.83 in 0.5 mi South 23.0 mph 39.1 mph 0.18 in Rain , Thunderstorm Heavy Thunderstorms and Rain
7:45 PM 68.0 °F - 61.0 °F 78% 29.79 in 0.8 mi East 16.1 mph 26.5 mph 0.61 in Rain , Thunderstorm Heavy Thunderstorms and Rain
7:50 PM 68.0 °F - 60.8 °F 78% 29.82 in 1.2 mi SE 15.0 mph 26.5 mph 0.87 in Rain , Thunderstorm Rain
7:54 PM 68.0 °F - 62.1 °F 81% 29.77 in 1.8 mi East 12.7 mph - 0.90 in Rain , Thunderstorm Heavy Rain
8:01 PM 68.0 °F - 62.1 °F 81% 29.81 in 3.0 mi South 8.1 mph 24.2 mph 0.19 in Rain , Thunderstorm Light Rain
8:11 PM 69.1 °F - 64.0 °F 84% 29.81 in 10.0 mi NNW 5.8 mph - 0.19 in   Overcast
8:54 PM 71.1 °F - 64.9 °F 81% 29.83 in 10.0 mi NNW 6.9 mph - 0.19 in   Scattered Clouds
9:54 PM 70.0 °F - 66.0 °F 87% 29.85 in 10.0 mi South 5.8 mph - N/A   Partly Cloudy
10:09 PM 70.0 °F - 64.0 °F 81% 29.87 in 10.0 mi East 3.5 mph - N/A Thunderstorm Mostly Cloudy
10:21 PM 70.0 °F - 64.9 °F 84% 29.88 in 10.0 mi WSW 8.1 mph - 0.00 in Rain , Thunderstorm Light Thunderstorms and Rain
10:54 PM 68.0 °F - 64.9 °F 90% 29.86 in 9.0 mi ESE 5.8 mph - 0.13 in Rain , Thunderstorm Light Thunderstorms and Rain
11:05 PM 69.1 °F - 66.0 °F 90% 29.91 in 7.0 mi SSW 11.5 mph - 0.02 in Rain , Thunderstorm Rain
11:54 PM 66.9 °F - 63.0 °F 87% 29.89 in 9.0 mi ESE 5.8 mph - 0.16 in Rain Light Rain